This demonstration page uses our WeatherBlox Daily Observations layout. Learn more.

Left ArrowRight Arrow

39.01783, -85.05884

Hourly Observations for May 10, 2015

Temp ( °F °C ) Dew Point ( °F °C ) Humidity (%) Winds ( mph kmh ) Pressure ( in mb ) Visibility ( mi km ) Precip ( " mm )
12:52 am 00:52 Cloudy 75 23.9 63 17.2 66 66 ENE 5 7 30.04 1017 10 16 0.00 0.00
1:52 am 01:52 Cloudy 73 22.8 63 17.2 71 71 E 3 6 30.04 1017 10 16 0.00 0.00
2:52 am 02:52 Mostly Cloudy 72 22.2 63 17.2 73 73 ESE 5 7 30.04 1017 10 16 0.00 0.00
3:52 am 03:52 Mostly Cloudy 71 21.7 62 16.7 73 73 Calm 30.03 1017 10 16 0.00 0.00
4:52 am 04:52 Mostly Cloudy 68 20 62 16.7 81 81 Calm 30.03 1017 10 16 0.00 0.00
5:52 am 05:52 Mostly Cloudy 68 20 62 16.7 81 81 Calm 30.04 1017 10 16 0.00 0.00
6:52 am 06:52 Mostly Cloudy 67 19.4 62 16.7 84 84 Calm 30.04 1017 10 16 0.00 0.00
7:52 am 07:52 Mostly Cloudy 68 20 62 16.7 81 81 S 3 6 30.06 1018 7 11 0.00 0.00
8:52 am 08:52 Mostly Cloudy 74 23.3 64 17.8 71 71 S 5 7 30.07 1018 8 13 0.00 0.00
9:52 am 09:52 Mostly Cloudy 78 25.6 63 17.2 60 60 S 9 15 30.06 1018 10 16 0.00 0.00
10:52 am 10:52 Mostly Cloudy 77 25 64 17.8 64 64 S 8 13 30.06 1018 10 16 0.00 0.00
11:52 am 11:52 Mostly Cloudy 78 25.6 64 17.8 62 62 SSW 9 15 30.07 1018 10 16 0.00 0.00
12:52 pm 12:52 Mostly Cloudy 79 26.1 63 17.2 58 58 SW 10 17 30.06 1018 10 16 0.00 0.00
1:52 pm 13:52 Mostly Cloudy 80 26.7 62 16.7 54 54 S 12 19 30.05 1018 10 16 0.00 0.00
2:52 pm 14:52 Mostly Cloudy 82 27.8 62 16.7 51 51 SSW 9 15 30.03 1017 10 16 0.00 0.00
3:52 pm 15:52 Cloudy 82 27.8 61 16.1 49 49 S 16 26 30.01 1016 10 16 0.00 0.00
4:52 pm 16:52 Mostly Cloudy 82 27.8 60 15.6 47 47 S 9 15 30.02 1017 10 16 0.00 0.00
5:52 pm 17:52 Cloudy 80 26.7 61 16.1 52 52 SSW 7 11 30.02 1017 10 16 0.00 0.00
6:52 pm 18:52 Partly Cloudy 81 27.2 62 16.7 53 53 SSW 7 11 30.01 1016 10 16 0.00 0.00
7:52 pm 19:52 Partly Cloudy 79 26.1 63 17.2 58 58 Calm 30.00 1016 10 16 0.00 0.00
8:52 pm 20:52 Partly Cloudy 74 23.3 63 17.2 69 69 S 3 6 29.99 1016 10 16 0.00 0.00
9:52 pm 21:52 Partly Cloudy 70 21.1 64 17.8 82 82 S 3 6 30.01 1016 10 16 0.00 0.00
10:52 pm 22:52 Partly Cloudy 72 22.2 62 16.7 71 71 SSW 5 7 30.03 1017 10 16 0.00 0.00
11:52 pm 23:52 Mostly Cloudy 68 20 63 17.2 84 84 SSW 3 6 30.03 1017 10 16 0.00 0.00

Powered by AerisWeather